When you browse on this site, cookies collect data to enhance your experience and personalize the content and advertising you see.
Visit our Privacy Policy to learn more. By continuing to use the site, you agree to this use of cookies and data.

Tiempo cada hora Barnsley

Hoy, 18 Septiembre, Viernes

Tiempo Temperatura Precipitaciones Viento Presión Humedad
00:00 +12°C° 0 mm 2 mps 761 mmHg 83%
01:00 +10°C° 0 mm 2 mps 761 mmHg 84%
02:00 +10°C° 0 mm 2 mps 761 mmHg 85%
03:00 +10°C° 0 mm 1 mps 760 mmHg 86%
04:00 +9°C° 0 mm 2 mps 760 mmHg 87%
05:00 +9°C° 0 mm 2 mps 760 mmHg 87%
06:00 +9°C° 0 mm 2 mps 760 mmHg 89%
07:00 +10°C° 0 mm 3 mps 760 mmHg 84%
08:00 +11°C° 0 mm 4 mps 760 mmHg 78%
09:00 +13°C° 0 mm 4 mps 760 mmHg 73%
10:00 +14°C° 0 mm 5 mps 760 mmHg 68%
11:00 +15°C° 0 mm 5 mps 760 mmHg 63%
12:00 +17°C° 0 mm 4 mps 760 mmHg 58%
13:00 +16°C° 0 mm 5 mps 759 mmHg 57%
14:00 +16°C° 0 mm 5 mps 758 mmHg 57%
15:00 +16°C° 0 mm 6 mps 758 mmHg 57%
16:00 +15°C° 0 mm 6 mps 758 mmHg 63%
17:00 +14°C° 0 mm 5 mps 758 mmHg 68%
18:00 +13°C° 0 mm 5 mps 758 mmHg 73%
19:00 +12°C° 0 mm 5 mps 758 mmHg 77%
20:00 +12°C° 0 mm 5 mps 758 mmHg 80%
21:00 +10°C° 0 mm 5 mps 758 mmHg 84%
22:00 +10°C° 0 mm 5 mps 758 mmHg 86%
23:00 +10°C° 0 mm 5 mps 758 mmHg 87%

Mañana, 19 Septiembre, Sábado

Tiempo Temperatura Precipitaciones Viento Presión Humedad
00:00 +10°C° 0 mm 5 mps 757 mmHg 89%
01:00 +10°C° 0 mm 5 mps 757 mmHg 89%
02:00 +10°C° 0 mm 5 mps 757 mmHg 89%
03:00 +10°C° 0 mm 5 mps 756 mmHg 89%
04:00 +10°C° 0 mm 5 mps 756 mmHg 90%
05:00 +9°C° 0 mm 5 mps 756 mmHg 90%
06:00 +9°C° 0 mm 5 mps 756 mmHg 91%
07:00 +12°C° 0 mm 5 mps 756 mmHg 86%
08:00 +13°C° 0 mm 6 mps 756 mmHg 81%
09:00 +14°C° 0 mm 6 mps 756 mmHg 76%
10:00 +15°C° 0 mm 6 mps 756 mmHg 72%
11:00 +16°C° 0 mm 6 mps 756 mmHg 67%
12:00 +17°C° 0 mm 7 mps 755 mmHg 63%
13:00 +17°C° 0 mm 7 mps 755 mmHg 63%
14:00 +17°C° 0 mm 7 mps 755 mmHg 63%
15:00 +17°C° 0 mm 7 mps 755 mmHg 63%
16:00 +16°C° 0 mm 6 mps 755 mmHg 67%
17:00 +15°C° 0 mm 6 mps 755 mmHg 70%
18:00 +14°C° 0 mm 5 mps 755 mmHg 74%
19:00 +13°C° 0 mm 5 mps 755 mmHg 78%
20:00 +12°C° 0 mm 5 mps 756 mmHg 82%
21:00 +10°C° 0 mm 5 mps 756 mmHg 86%
22:00 +11°C° 0 mm 4 mps 756 mmHg 87%
23:00 +11°C° 0 mm 4 mps 756 mmHg 89%

Pasado mañana, 20 Septiembre, Domingo

Tiempo Temperatura Precipitaciones Viento Presión Humedad
00:00 +11°C° 0 mm 4 mps 756 mmHg 91%
01:00 +11°C° 0 mm 4 mps 756 mmHg 92%
02:00 +11°C° 0 mm 4 mps 755 mmHg 93%
03:00 +11°C° 0 mm 4 mps 755 mmHg 94%
04:00 +11°C° 0 mm 4 mps 755 mmHg 94%
05:00 +11°C° 0 mm 4 mps 756 mmHg 95%
06:00 +11°C° 0 mm 4 mps 756 mmHg 95%
07:00 +12°C° 0 mm 4 mps 756 mmHg 91%
08:00 +13°C° 0 mm 4 mps 756 mmHg 87%
09:00 +14°C° 0 mm 5 mps 756 mmHg 83%
10:00 +15°C° 0 mm 4 mps 756 mmHg 77%
11:00 +17°C° 0 mm 4 mps 756 mmHg 70%
12:00 +19°C° 0 mm 4 mps 756 mmHg 64%
13:00 +19°C° 0 mm 4 mps 755 mmHg 63%
14:00 +19°C° 0 mm 4 mps 755 mmHg 61%
15:00 +19°C° 0 mm 4 mps 755 mmHg 60%
16:00 +18°C° 0 mm 4 mps 755 mmHg 66%
17:00 +17°C° 0 mm 3 mps 755 mmHg 73%
18:00 +14°C° 0 mm 3 mps 755 mmHg 80%
19:00 +14°C° 0 mm 3 mps 755 mmHg 84%
20:00 +14°C° 0 mm 2 mps 755 mmHg 88%
21:00 +13°C° 0 mm 2 mps 755 mmHg 92%
22:00 +13°C° 0 mm 1 mps 754 mmHg 93%
23:00 +12°C° 0 mm 1 mps 754 mmHg 94%

21 Septiembre, Lunes

Tiempo Temperatura Precipitaciones Viento Presión Humedad
00:00 +11°C° 0 mm 0 mps 754 mmHg 95%
01:00 +11°C° 0 mm 0 mps 753 mmHg 95%
02:00 +10°C° 0 mm 0 mps 753 mmHg 95%
03:00 +10°C° 0 mm 0 mps 753 mmHg 96%
04:00 +10°C° 0 mm 0 mps 753 mmHg 94%
05:00 +10°C° 0 mm 0 mps 752 mmHg 93%
06:00 +11°C° 0 mm 1 mps 752 mmHg 92%
07:00 +12°C° 0 mm 1 mps 752 mmHg 84%
08:00 +14°C° 0 mm 1 mps 752 mmHg 76%
09:00 +15°C° 0 mm 1 mps 752 mmHg 68%
10:00 +18°C° 0 mm 1 mps 751 mmHg 63%
11:00 +20°C° 0 mm 1 mps 751 mmHg 58%
12:00 +21°C° 0 mm 1 mps 751 mmHg 53%
13:00 +21°C° 0 mm 2 mps 750 mmHg 55%
14:00 +21°C° 0 mm 2 mps 750 mmHg 57%
15:00 +23°C° 0 mm 2 mps 749 mmHg 58%
16:00 +21°C° 0 mm 2 mps 749 mmHg 64%
17:00 +20°C° 0 mm 1 mps 748 mmHg 70%
18:00 +19°C° 0 mm 1 mps 748 mmHg 76%
19:00 +18°C° 0 mm 1 mps 748 mmHg 78%
20:00 +18°C° 0 mm 1 mps 748 mmHg 80%
21:00 +16°C° 0 mm 1 mps 747 mmHg 83%
22:00 +16°C° 0 mm 1 mps 747 mmHg 83%
23:00 +16°C° 0 mm 1 mps 746 mmHg 84%

22 Septiembre, Martes

Tiempo Temperatura Precipitaciones Viento Presión Humedad
00:00 +15°C° 0 mm 1 mps 745 mmHg 85%
01:00 +15°C° 0 mm 2 mps 745 mmHg 85%
02:00 +15°C° 0 mm 2 mps 744 mmHg 86%
03:00 +15°C° 0 mm 2 mps 743 mmHg 86%
04:00 +14°C° 0 mm 3 mps 742 mmHg 86%
05:00 +14°C° 0 mm 4 mps 742 mmHg 86%
06:00 +14°C° 0 mm 4 mps 742 mmHg 86%
07:00 +15°C° 0 mm 5 mps 741 mmHg 83%
08:00 +15°C° 0 mm 5 mps 741 mmHg 79%
09:00 +16°C° 0 mm 6 mps 740 mmHg 76%
10:00 +16°C° 0.1 mm 6 mps 740 mmHg 73%
11:00 +17°C° 0.1 mm 7 mps 740 mmHg 71%
12:00 +17°C° 0.1 mm 7 mps 739 mmHg 68%
13:00 +16°C° 0.4 mm 6 mps 739 mmHg 72%
14:00 +15°C° 0.4 mm 6 mps 739 mmHg 75%
15:00 +13°C° 0.4 mm 6 mps 739 mmHg 78%
16:00 +13°C° 0 mm 6 mps 740 mmHg 75%
17:00 +12°C° 0 mm 5 mps 740 mmHg 71%
18:00 +10°C° 0 mm 5 mps 741 mmHg 67%
19:00 +9°C° 0 mm 5 mps 741 mmHg 67%
20:00 +10°C° 0 mm 4 mps 742 mmHg 67%
21:00 +9°C° 0 mm 3 mps 742 mmHg 68%
22:00 +8°C° 0 mm 3 mps 742 mmHg 68%
23:00 +8°C° 0 mm 3 mps 742 mmHg 68%

23 Septiembre, Miércoles

Tiempo Temperatura Precipitaciones Viento Presión Humedad
00:00 +8°C° 0 mm 2 mps 742 mmHg 69%
01:00 +8°C° 0 mm 2 mps 742 mmHg 70%
02:00 +8°C° 0 mm 2 mps 742 mmHg 72%
03:00 +8°C° 0 mm 2 mps 742 mmHg 73%
04:00 +8°C° 0 mm 2 mps 741 mmHg 74%
05:00 +8°C° 0 mm 2 mps 741 mmHg 74%
06:00 +8°C° 0 mm 2 mps 741 mmHg 74%
07:00 +9°C° 0 mm 2 mps 740 mmHg 70%
08:00 +10°C° 0 mm 3 mps 740 mmHg 67%
09:00 +10°C° 0 mm 3 mps 739 mmHg 63%
10:00 +11°C° 0 mm 4 mps 739 mmHg 60%
11:00 +12°C° 0 mm 5 mps 738 mmHg 56%
12:00 +13°C° 0 mm 6 mps 737 mmHg 52%
13:00 +13°C° 0 mm 6 mps 736 mmHg 55%
14:00 +12°C° 0 mm 7 mps 735 mmHg 59%
15:00 +12°C° 0 mm 7 mps 734 mmHg 62%
16:00 +11°C° 0 mm 7 mps 733 mmHg 67%
17:00 +10°C° 0 mm 7 mps 732 mmHg 71%
18:00 +9°C° 0 mm 6 mps 730 mmHg 75%
19:00 +9°C° 1.4 mm 6 mps 730 mmHg 78%
20:00 +9°C° 1.4 mm 7 mps 729 mmHg 80%
21:00 +9°C° 1.4 mm 7 mps 728 mmHg 83%
22:00 +9°C° 0.4 mm 6 mps 727 mmHg 81%
23:00 +8°C° 0.4 mm 5 mps 727 mmHg 78%
Mostrar más